sat.trackr.live / text

‹ back to catalog

STARLINK-34590

NORAD 64675 · 2025-139M

PAYLOAD ACTIVE UNKNOWN

§ Identity

Operator
Country
US
Launch date
2025-06-28
Launch site
AFETR
Launch vehicle
Mass (kg)
RCS (m²)

Purposes: comms

External: N2YO · Heavens-Above · Gunter

§ Orbital elements

Epoch: 2026-09-20T09:31:36.092928Z

Period
93.85 min
Inclination
53.1583°
Eccentricity
0.0001165
Mean motion
15.34411103 rev/d
Perigee alt
461.9 km
Apogee alt
463.5 km
Semi-major
6,840.8 km
B*
4.7947e-4
RAAN
299.8801°
Arg perigee
80.9190°
Mean anomaly
279.1944°
Rev number
7,013

§ Raw data

STARLINK-345901 64675U 25139M   26263.39694552  .00015863  00000+0  47947-3 0  99962 64675  53.1583 299.8801 0001165  80.9190 279.1944 15.34411103 70132

JSON: /api/v1/satellites/64675 · /tle

For live sub-satellite position, see the globe view (requires WebGL).

§ Visibility from observer

Set your observer location to see the next 7 days of passes ≥ 10°. The values pass through the URL so the page stays shareable.

No JS? Fill the form by hand. The geolocation button needs JavaScript.